GW0409 Weather Reports


Display with metric or nautical units.
time (UTC)temp
F
wind
direction
speed
MPH
gust
MPH
rain 1hr
in
rain 24hr
in
rain mn
in
humidity
%
barometer
mb
20260507191019 61 280 3.0 6.0 0.00 0.00 0.00 37 1014.7
20260507190019 60 280 3.0 8.0 0.00 0.00 0.00 39 1014.8
20260507185018 60 233 2.0 6.0 0.00 0.00 0.00 40 1014.8
20260507184018 59 274 3.0 10.0 0.00 0.00 0.00 41 1014.9
20260507183018 58 260 3.0 8.0 0.00 0.00 0.00 43 1015.1
20260507182018 58 243 3.0 8.0 0.00 0.00 0.00 44 1015.2
20260507181018 57 261 2.0 6.0 0.00 0.00 0.00 45 1015.3
20260507180019 56 293 2.0 9.0 0.00 0.00 0.00 46 1015.4
20260507175019 56 261 3.0 7.0 0.00 0.00 0.00 47 1015.4
20260507174019 55 317 3.0 6.0 0.00 0.00 0.00 48 1015.5
20260507173019 55 305 3.0 7.0 0.00 0.00 0.00 48 1015.6
20260507172016 54 255 2.0 6.0 0.00 0.00 0.00 50 1015.8
20260507171016 54 271 3.0 8.0 0.00 0.00 0.00 50 1015.7
20260507170019 53 216 2.0 5.0 0.00 0.00 0.00 52 1015.8
20260507165020 53 293 2.0 4.0 0.00 0.00 0.00 52 1016.0
20260507164017 52 250 2.0 4.0 0.00 0.00 0.00 53 1016.1
20260507163017 51 236 2.0 5.0 0.00 0.00 0.00 55 1016.2
20260507162039 51 265 3.0 5.0 0.00 0.00 0.00 55 1016.2
20260507161018 51 254 2.0 6.0 0.00 0.00 0.00 57 1016.3
20260507160018 51 260 3.0 5.0 0.00 0.00 0.00 57 1016.2
20260507155018 50 279 2.0 5.0 0.00 0.00 0.00 58 1016.2
20260507154018 50 260 2.0 4.0 0.00 0.00 0.00 59 1016.2
20260507153019 49 268 3.0 4.0 0.00 0.00 0.00 60 1016.2
20260507152038 48 288 3.0 6.0 0.00 0.00 0.00 62 1016.4
20260507151038 48 253 3.0 6.0 0.00 0.00 0.00 63 1016.5
20260507150019 47 250 3.0 7.0 0.00 0.00 0.00 64 1016.5
20260507145020 47 238 2.0 5.0 0.00 0.00 0.00 65 1016.4
20260507144019 47 262 3.0 8.0 0.00 0.00 0.00 66 1016.4
20260507143019 46 250 2.0 5.0 0.00 0.00 0.00 66 1016.4
20260507142038 46 255 3.0 8.0 0.00 0.00 0.00 66 1016.3
20260507141043 46 252 3.0 4.0 0.00 0.00 0.00 67 1016.1
20260507140017 45 264 2.0 4.0 0.00 0.00 0.00 68 1016.1
20260507135020 45 234 2.0 5.0 0.00 0.00 0.00 68 1016.0
20260507134017 45 255 2.0 4.0 0.00 0.00 0.00 68 1016.0
20260507133017 45 274 2.0 4.0 0.00 0.00 0.00 69 1015.9
20260507132020 44 272 1.0 5.0 0.00 0.00 0.00 69 1015.9
20260507131020 45 290 1.0 4.0 0.00 0.00 0.00 68 1015.8
20260507130019 46 268 0.0 2.0 0.00 0.00 0.00 68 1015.7
20260507125018 46 254 2.0 5.0 0.00 0.00 0.00 66 1015.6
20260507124019 47 263 2.0 6.0 0.00 0.00 0.00 64 1015.5
20260507123018 47 255 3.0 6.0 0.00 0.00 0.00 64 1015.5
20260507122040 47 250 2.0 6.0 0.00 0.00 0.00 64 1015.5
20260507121019 47 255 2.0 4.0 0.00 0.00 0.00 63 1015.4
20260507120020 47 265 2.0 6.0 0.00 0.00 0.00 62 1015.3
20260507115021 47 253 2.0 6.0 0.00 0.00 0.00 63 1015.2
20260507114021 47 244 2.0 5.0 0.00 0.00 0.00 63 1015.0
20260507113017 48 255 2.0 5.0 0.00 0.00 0.00 62 1015.0
20260507112019 48 242 3.0 6.0 0.00 0.00 0.00 62 1014.9
20260507111020 48 238 2.0 5.0 0.00 0.00 0.00 61 1014.9
20260507110041 48 258 2.0 4.0 0.00 0.00 0.00 61 1015.0
20260507105022 48 225 2.0 6.0 0.00 0.00 0.00 61 1014.8
20260507104018 48 253 3.0 7.0 0.00 0.00 0.00 60 1014.6
20260507103017 48 235 3.0 8.0 0.00 0.00 0.00 60 1014.5
20260507102020 48 268 3.0 6.0 0.00 0.00 0.00 59 1014.6
20260507101021 48 234 3.0 5.0 0.00 0.00 0.00 60 1014.5
20260507100019 49 232 1.0 3.0 0.00 0.00 0.00 59 1014.4
20260507095018 48 247 3.0 7.0 0.00 0.00 0.00 59 1014.3
20260507094018 49 229 2.0 7.0 0.00 0.00 0.00 58 1014.3
20260507093018 49 265 2.0 6.0 0.00 0.00 0.00 57 1014.1
20260507092019 50 280 2.0 6.0 0.00 0.00 0.00 56 1013.9
20260507091018 50 293 2.0 4.0 0.00 0.00 0.00 54 1013.8
20260507090039 50 310 2.0 5.0 0.00 0.00 0.00 53 1013.7
20260507085021 50 289 3.0 7.0 0.00 0.00 0.00 53 1013.7
20260507084021 50 272 2.0 5.0 0.00 0.00 0.00 52 1013.6
20260507083037 50 265 2.0 6.0 0.00 0.00 0.00 51 1013.5
20260507082041 50 246 2.0 5.0 0.00 0.00 0.00 51 1013.6
20260507081020 50 285 1.0 3.0 0.00 0.00 0.00 50 1013.6
20260507080020 51 307 1.0 3.0 0.00 0.00 0.00 49 1013.5
20260507075021 51 320 2.0 4.0 0.00 0.00 0.00 48 1013.4
20260507074017 52 274 2.0 6.0 0.00 0.00 0.00 47 1013.3
20260507073037 52 306 1.0 4.0 0.00 0.00 0.00 46 1013.2
20260507072042 52 328 2.0 7.0 0.00 0.00 0.00 47 1013.0
20260507071021 52 332 2.0 5.0 0.00 0.00 0.00 49 1012.9
20260507070018 52 318 2.0 4.0 0.00 0.00 0.00 49 1012.8
20260507065038 52 343 2.0 4.0 0.00 0.00 0.00 50 1012.8
20260507064018 52 333 2.0 4.0 0.00 0.00 0.00 49 1012.7
20260507063020 52 316 2.0 3.0 0.00 0.00 0.00 48 1012.7
20260507062019 53 338 2.0 3.0 0.00 0.00 0.00 47 1012.6
20260507061019 53 327 1.0 3.0 0.00 0.00 0.00 46 1012.6
20260507060019 54 340 2.0 3.0 0.00 0.00 0.00 46 1012.5
20260507055021 54 198 0.0 2.0 0.00 0.00 0.00 44 1012.5
20260507054019 55 201 1.0 3.0 0.00 0.00 0.00 43 1012.4
20260507053019 55 323 0.0 4.0 0.00 0.00 0.00 43 1012.3
20260507052019 55 320 0.0 3.0 0.00 0.00 0.00 42 1012.2
20260507051019 56 330 0.0 4.0 0.00 0.00 0.00 42 1012.1
20260507050021 56 0.0 0.0 0.00 0.00 0.00 41 1012.1
20260507045017 57 337 0.0 3.0 0.00 0.00 0.00 40 1012.0
20260507044019 58 334 1.0 4.0 0.00 0.00 0.00 39 1011.9
20260507043020 58 330 2.0 4.0 0.00 0.00 0.00 38 1011.9
20260507042020 59 345 2.0 3.0 0.00 0.00 0.00 37 1011.8
20260507041018 60 343 2.0 3.0 0.00 0.00 0.00 36 1011.7
20260507040038 61 347 2.0 3.0 0.00 0.00 0.00 33 1011.6
20260507035018 62 337 1.0 4.0 0.00 0.00 0.00 32 1011.5
20260507034018 62 353 1.0 5.0 0.00 0.00 0.00 31 1011.3
20260507033019 63 326 1.0 3.0 0.00 0.00 0.00 30 1011.2
20260507032018 64 290 2.0 8.0 0.00 0.00 0.00 29 1011.1
20260507031019 65 32 1.0 4.0 0.00 0.00 0.00 28 1011.0
20260507030039 66 301 4.0 9.0 0.00 0.00 0.00 27 1010.7
20260507025019 66 329 4.0 8.0 0.00 0.00 0.00 27 1010.7
20260507024019 67 332 3.0 7.0 0.00 0.00 0.00 27 1010.6
20260507023019 67 338 4.0 9.0 0.00 0.00 0.00 27 1010.6
20260507022020 67 323 4.0 8.0 0.00 0.00 0.00 26 1010.5
20260507021018 68 328 4.0 9.0 0.00 0.00 0.00 25 1010.5
20260507020017 68 314 3.0 8.0 0.00 0.00 0.00 25 1010.4
20260507015022 68 327 3.0 7.0 0.00 0.00 0.00 25 1010.5
20260507014020 68 4 4.0 9.0 0.00 0.00 0.00 25 1010.4
20260507013017 68 344 5.0 12.0 0.00 0.00 0.00 25 1010.3
20260507012018 69 322 3.0 8.0 0.00 0.00 0.00 26 1010.3
20260507011018 68 329 3.0 8.0 0.00 0.00 0.00 27 1010.3
20260507010019 69 313 3.0 11.0 0.00 0.00 0.00 27 1010.2
20260507005018 69 17 2.0 6.0 0.00 0.00 0.00 28 1010.2
20260507004019 69 225 3.0 11.0 0.00 0.00 0.00 29 1010.2
20260507003019 69 252 4.0 11.0 0.00 0.00 0.00 30 1010.1
20260507002020 69 297 4.0 13.0 0.00 0.00 0.00 30 1010.1
20260507001018 68 274 4.0 9.0 0.00 0.00 0.00 31 1010.1
20260507000039 68 243 5.0 11.0 0.00 0.00 0.00 32 1010.1
20260506235019 68 253 5.0 10.0 0.00 0.00 0.00 32 1010.1
20260506234019 69 241 4.0 9.0 0.00 0.00 0.00 31 1010.1
20260506233019 68 251 3.0 8.0 0.00 0.00 0.00 32 1010.2
20260506232020 68 277 4.0 8.0 0.00 0.00 0.00 32 1010.2
20260506231017 68 325 4.0 11.0 0.00 0.00 0.00 33 1010.2
20260506230018 67 252 3.0 7.0 0.00 0.00 0.00 31 1010.2
20260506225019 67 283 4.0 9.0 0.00 0.00 0.00 33 1010.3
20260506224019 67 272 5.0 15.0 0.00 0.00 0.00 31 1010.3
20260506223018 67 276 4.0 11.0 0.00 0.00 0.00 31 1010.4
20260506222018 67 276 4.0 10.0 0.00 0.00 0.00 32 1010.4
20260506221018 67 330 3.0 8.0 0.00 0.00 0.00 33 1010.5
20260506220039 66 284 4.0 9.0 0.00 0.00 0.00 31 1010.6
20260506215020 66 307 4.0 9.0 0.00 0.00 0.00 30 1010.5
20260506214018 66 279 4.0 10.0 0.00 0.00 0.00 31 1010.6
20260506213019 66 283 5.0 11.0 0.00 0.00 0.00 32 1010.6
20260506212039 66 243 5.0 11.0 0.00 0.00 0.00 32 1010.6
20260506211020 65 286 4.0 9.0 0.00 0.00 0.00 33 1010.6
20260506210021 65 258 4.0 13.0 0.00 0.00 0.00 34 1010.6
20260506205016 64 316 5.0 11.0 0.00 0.00 0.00 33 1010.6
20260506204020 64 322 5.0 9.0 0.00 0.00 0.00 33 1010.6
20260506203019 64 325 5.0 17.0 0.00 0.00 0.00 34 1010.6
20260506202020 64 272 4.0 9.0 0.00 0.00 0.00 36 1010.5
20260506201017 63 315 4.0 12.0 0.00 0.00 0.00 38 1010.5
20260506200019 63 314 4.0 10.0 0.00 0.00 0.00 38 1010.6
20260506195019 62 286 5.0 10.0 0.00 0.00 0.00 37 1010.6
20260506194017 62 256 5.0 10.0 0.00 0.00 0.00 38 1010.5
20260506193019 63 269 5.0 14.0 0.00 0.00 0.00 38 1010.5
20260506192018 63 248 3.0 10.0 0.00 0.00 0.00 39 1010.5